Flag for U.S.A. Weather past 2 weeks in Philadelphia, Pennsylvania, U.S.A.

Now
35 °F

Overcast.


Feels Like: 32 °F
Forecast: 28 / 37 °F
Wind: 3 mph from Northeast

Location: Philadelphia International Airport

Current Time: Dec 20, 2014 at 3:38:00 PM

Latest Report: Dec 20, 2014 at 2:54 PM


Visibility: 10 mi

Pressure: 30.27 "Hg

Humidity: 56%

Dew point: 21 °F

Location of PhiladelphiaLocation

Historic Weather in Philadelphia — Graph

°F

Philadelphia temperature yesterday

Maximum temperature yesterday: 42 °F (at 1:54 PM)
Minimum temperature yesterday: 33 °F (at 8:54 PM)
Average temperature yesterday: 38 °F

Past Weeks' High & Low Weather Summary

 TemperatureHumidityPressure
High52 °F (Dec 16, 12:54 PM)97% (Dec 16, 10:04 AM)30.63 "Hg (Dec 16, 10:04 AM)
Low27 °F (Dec 8, 4:54 AM)28% (Dec 7, 8:54 PM)29.70 "Hg (Dec 10, 5:54 AM)
Average40 °F67%30.07 "Hg
* Reported Dec 5 1:54 PM — Dec 20 1:54 PM, Philadelphia, Weather by CustomWeather, © 2014

Note: Actual official high and low records may vary slightly from our data, if they occured in-between our weather recording intervals... More about our weather records

Advertising

Philadelphia weather history for previous 24 hours

 ConditionsComfort  
Time TempWeatherWind HumidityBarometerVisibility
1:54 PM
Dec 20
35 °FOvercast.5 mph54%30.27 "Hg10 mi
12:54 PM35 °FOvercast.6 mph54%30.29 "Hg10 mi
11:54 AM34 °FOvercast.8 mph56%30.29 "Hg10 mi
10:54 AM34 °FOvercast.9 mph56%30.31 "Hg10 mi
9:54 AM33 °FOvercast.5 mph61%30.32 "Hg10 mi
8:54 AM33 °FOvercast.6 mph61%30.31 "Hg10 mi
7:54 AM33 °FOvercast.8 mph61%30.29 "Hg10 mi
6:54 AM33 °FOvercast.9 mph63%30.27 "Hg10 mi
5:54 AM34 °FOvercast.10 mph61%30.26 "Hg10 mi
4:54 AM34 °FOvercast.8 mph61%30.25 "Hg10 mi
3:54 AM34 °FOvercast.6 mph61%30.24 "Hg10 mi
2:54 AM34 °FOvercast.5 mph61%30.23 "Hg10 mi
1:54 AM34 °FOvercast.3 mph59%30.22 "Hg10 mi
12:54 AM34 °FOvercast.3 mph56%30.21 "Hg10 mi
11:54 PM
Dec 19
34 °FOvercast.5 mph56%30.22 "Hg10 mi
10:54 PM34 °FPassing clouds.5 mph59%30.22 "Hg10 mi
9:54 PM34 °FPassing clouds.7 mph59%30.22 "Hg10 mi
8:54 PM33 °FPassing clouds.8 mph61%30.20 "Hg10 mi
7:54 PM34 °FClear.6 mph59%30.18 "Hg10 mi
6:54 PM36 °FClear.12 mph54%30.17 "Hg10 mi
5:54 PM39 °FClear.9 mph48%30.15 "Hg10 mi
4:54 PM40 °FPassing clouds.10 mph47%30.12 "Hg10 mi
3:54 PM41 °FPassing clouds.16 mph45%30.09 "Hg10 mi
Weather by CustomWeather, © 2014

See weather overviewHow to use our weather pages